• In Austria
  • List of Countries
  • For 7 days
  • Water Temperature
  • Satellite Maps
  • Weather Map
  • News
  • Weather Widgets
  • user-avatar
    Login

    Hourly Weather Bourgoin

    Today, 20 January, Saturday

    Time Temperature Precipitation Wind Pressure Humidity
    00:00 +3°C° 0 mm 1 mps 737 mmHg 93%
    01:00 +3°C° 0 mm 1 mps 737 mmHg 93%
    02:00 +3°C° 0 mm 1 mps 737 mmHg 93%
    03:00 +2°C° 0 mm 1 mps 736 mmHg 93%
    04:00 +2°C° 0.1 mm 1 mps 736 mmHg 91%
    05:00 +2°C° 0.1 mm 2 mps 736 mmHg 90%
    06:00 +2°C° 0 mm 2 mps 736 mmHg 88%
    07:00 +3°C° 0.2 mm 2 mps 735 mmHg 85%
    08:00 +3°C° 0.2 mm 2 mps 735 mmHg 83%
    09:00 +3°C° 0.2 mm 3 mps 734 mmHg 80%
    10:00 +3°C° 1 mm 3 mps 733 mmHg 80%
    11:00 +4°C° 1 mm 4 mps 732 mmHg 80%
    12:00 +3°C° 0 mm 4 mps 731 mmHg 83%
    13:00 +4°C° 1.7 mm 4 mps 730 mmHg 84%
    14:00 +4°C° 1.7 mm 4 mps 730 mmHg 86%
    15:00 +3°C° 1.7 mm 5 mps 729 mmHg 88%
    16:00 +4°C° 1.4 mm 4 mps 729 mmHg 89%
    17:00 +5°C° 1.4 mm 4 mps 729 mmHg 91%
    18:00 +5°C° 1.4 mm 4 mps 729 mmHg 92%
    19:00 +5°C° 1.2 mm 3 mps 728 mmHg 93%
    20:00 +7°C° 1.2 mm 3 mps 728 mmHg 94%
    21:00 +7°C° 1.2 mm 3 mps 728 mmHg 95%
    22:00 +7°C° 1 mm 3 mps 728 mmHg 95%
    23:00 +8°C° 1 mm 2 mps 729 mmHg 95%

    Tomorrow, 21 January, Sunday

    Time Temperature Precipitation Wind Pressure Humidity
    00:00 +8°C° 1 mm 2 mps 729 mmHg 94%
    01:00 +8°C° 0.5 mm 2 mps 730 mmHg 94%
    02:00 +8°C° 0.5 mm 3 mps 730 mmHg 93%
    03:00 +7°C° 0.5 mm 3 mps 731 mmHg 92%
    04:00 +7°C° 0.2 mm 2 mps 732 mmHg 92%
    05:00 +7°C° 0.2 mm 2 mps 732 mmHg 93%
    06:00 +6°C° 0.2 mm 2 mps 733 mmHg 93%
    07:00 +7°C° 0.5 mm 1 mps 734 mmHg 94%
    08:00 +7°C° 0.5 mm 1 mps 734 mmHg 94%
    09:00 +7°C° 0.5 mm 1 mps 735 mmHg 94%
    10:00 +7°C° 1.1 mm 1 mps 735 mmHg 94%
    11:00 +7°C° 1.1 mm 1 mps 735 mmHg 94%
    12:00 +8°C° 1.1 mm 1 mps 735 mmHg 94%
    13:00 +7°C° 0.8 mm 1 mps 735 mmHg 94%
    14:00 +7°C° 0.8 mm 1 mps 735 mmHg 95%
    15:00 +7°C° 0.8 mm 1 mps 735 mmHg 95%
    16:00 +7°C° 0.3 mm 1 mps 735 mmHg 94%
    17:00 +7°C° 0.3 mm 1 mps 735 mmHg 94%
    18:00 +7°C° 0.3 mm 1 mps 736 mmHg 93%
    19:00 +8°C° 0.4 mm 1 mps 736 mmHg 93%
    20:00 +7°C° 0.4 mm 2 mps 736 mmHg 93%
    21:00 +7°C° 0.4 mm 2 mps 736 mmHg 93%
    22:00 +8°C° 0.5 mm 2 mps 736 mmHg 93%
    23:00 +8°C° 0.5 mm 2 mps 736 mmHg 94%

    Day after tomorrow, 22 January, Monday

    Time Temperature Precipitation Wind Pressure Humidity
    00:00 +8°C° 0.5 mm 2 mps 736 mmHg 94%
    01:00 +8°C° 1.6 mm 2 mps 736 mmHg 94%
    02:00 +9°C° 1.6 mm 2 mps 736 mmHg 95%
    03:00 +9°C° 1.6 mm 2 mps 736 mmHg 95%
    04:00 +9°C° 2.7 mm 2 mps 736 mmHg 95%
    05:00 +9°C° 2.7 mm 2 mps 735 mmHg 95%
    06:00 +9°C° 2.7 mm 2 mps 735 mmHg 95%
    07:00 +9°C° 2.3 mm 2 mps 736 mmHg 95%
    08:00 +9°C° 2.3 mm 2 mps 736 mmHg 95%
    09:00 +9°C° 2.3 mm 2 mps 736 mmHg 95%
    10:00 +10°C° 2.8 mm 2 mps 736 mmHg 95%
    11:00 +10°C° 2.8 mm 2 mps 736 mmHg 94%
    12:00 +12°C° 2.8 mm 2 mps 736 mmHg 93%
    13:00 +12°C° 1.9 mm 2 mps 736 mmHg 92%
    14:00 +12°C° 1.9 mm 2 mps 736 mmHg 92%
    15:00 +12°C° 1.9 mm 2 mps 736 mmHg 91%
    16:00 +12°C° 0.5 mm 2 mps 736 mmHg 91%
    17:00 +12°C° 0.5 mm 2 mps 736 mmHg 91%
    18:00 +10°C° 0.5 mm 2 mps 736 mmHg 91%
    19:00 +10°C° 1.2 mm 2 mps 737 mmHg 91%
    20:00 +10°C° 1.2 mm 2 mps 737 mmHg 92%
    21:00 +10°C° 1.2 mm 2 mps 737 mmHg 93%
    22:00 +10°C° 1.1 mm 2 mps 737 mmHg 93%
    23:00 +10°C° 1.1 mm 2 mps 737 mmHg 94%

    23 January, Tuesday

    Time Temperature Precipitation Wind Pressure Humidity
    00:00 +10°C° 1.1 mm 2 mps 738 mmHg 94%
    01:00 +11°C° 0.4 mm 1 mps 738 mmHg 95%
    02:00 +11°C° 0.4 mm 1 mps 738 mmHg 96%
    03:00 +11°C° 0.4 mm 1 mps 738 mmHg 96%
    04:00 +10°C° 0 mm 1 mps 739 mmHg 97%
    05:00 +10°C° 0 mm 1 mps 739 mmHg 97%
    06:00 +10°C° 0 mm 1 mps 739 mmHg 98%
    07:00 +10°C° 0 mm 1 mps 740 mmHg 96%
    08:00 +10°C° 0 mm 1 mps 740 mmHg 95%
    09:00 +10°C° 0 mm 1 mps 740 mmHg 94%
    10:00 +11°C° 0 mm 1 mps 741 mmHg 91%
    11:00 +12°C° 0 mm 1 mps 741 mmHg 88%
    12:00 +12°C° 0 mm 1 mps 741 mmHg 85%
    13:00 +13°C° 0 mm 1 mps 741 mmHg 84%
    14:00 +13°C° 0 mm 1 mps 741 mmHg 84%
    15:00 +13°C° 0 mm 1 mps 741 mmHg 84%
    16:00 +11°C° 0 mm 1 mps 741 mmHg 87%
    17:00 +10°C° 0 mm 1 mps 741 mmHg 89%
    18:00 +9°C° 0 mm 1 mps 742 mmHg 92%
    19:00 +9°C° 0 mm 1 mps 742 mmHg 91%
    20:00 +8°C° 0 mm 1 mps 742 mmHg 90%
    21:00 +8°C° 0 mm 1 mps 743 mmHg 89%
    22:00 +8°C° 0 mm 1 mps 743 mmHg 88%
    23:00 +8°C° 0 mm 1 mps 743 mmHg 87%

    24 January, Wednesday

    Time Temperature Precipitation Wind Pressure Humidity
    00:00 +8°C° 0 mm 1 mps 743 mmHg 86%
    01:00 +8°C° 0 mm 1 mps 743 mmHg 85%
    02:00 +8°C° 0 mm 1 mps 743 mmHg 84%
    03:00 +8°C° 0 mm 1 mps 743 mmHg 83%
    04:00 +8°C° 0 mm 1 mps 743 mmHg 83%
    05:00 +7°C° 0 mm 1 mps 743 mmHg 83%
    06:00 +7°C° 0 mm 1 mps 742 mmHg 83%
    07:00 +8°C° 0 mm 1 mps 743 mmHg 81%
    08:00 +8°C° 0 mm 1 mps 743 mmHg 79%
    09:00 +9°C° 0 mm 1 mps 743 mmHg 78%
    10:00 +10°C° 0 mm 2 mps 742 mmHg 75%
    11:00 +12°C° 0 mm 2 mps 742 mmHg 72%
    12:00 +12°C° 0 mm 3 mps 741 mmHg 70%
    13:00 +12°C° 0 mm 3 mps 741 mmHg 72%
    14:00 +12°C° 0 mm 3 mps 741 mmHg 74%
    15:00 +12°C° 0 mm 3 mps 740 mmHg 76%
    16:00 +11°C° 0 mm 3 mps 740 mmHg 80%
    17:00 +10°C° 0 mm 3 mps 741 mmHg 84%
    18:00 +8°C° 0 mm 3 mps 741 mmHg 88%
    19:00 +8°C° 0 mm 3 mps 741 mmHg 87%
    20:00 +8°C° 0 mm 3 mps 741 mmHg 87%
    21:00 +7°C° 0 mm 3 mps 741 mmHg 87%
    22:00 +7°C° 0 mm 3 mps 741 mmHg 87%
    23:00 +7°C° 0 mm 3 mps 740 mmHg 87%

    25 January, Thursday

    Time Temperature Precipitation Wind Pressure Humidity
    00:00 +7°C° 0 mm 3 mps 740 mmHg 87%
    01:00 +7°C° 0 mm 3 mps 740 mmHg 87%
    02:00 +7°C° 0 mm 3 mps 739 mmHg 86%
    03:00 +7°C° 0 mm 3 mps 739 mmHg 85%
    04:00 +7°C° 0 mm 3 mps 739 mmHg 85%
    05:00 +5°C° 0 mm 3 mps 739 mmHg 85%
    06:00 +5°C° 0 mm 3 mps 738 mmHg 85%
    07:00 +7°C° 0 mm 3 mps 738 mmHg 83%
    08:00 +8°C° 0 mm 3 mps 738 mmHg 81%
    09:00 +8°C° 0 mm 4 mps 738 mmHg 79%
    10:00 +10°C° 0 mm 4 mps 738 mmHg 75%
    11:00 +12°C° 0 mm 5 mps 737 mmHg 72%
    12:00 +13°C° 0 mm 5 mps 737 mmHg 69%
    13:00 +13°C° 0 mm 5 mps 737 mmHg 71%
    14:00 +12°C° 0 mm 4 mps 736 mmHg 73%
    15:00 +12°C° 0 mm 3 mps 736 mmHg 75%
    16:00 +11°C° 0.1 mm 3 mps 736 mmHg 79%
    17:00 +10°C° 0.1 mm 2 mps 736 mmHg 83%
    18:00 +9°C° 0.1 mm 2 mps 737 mmHg 87%
    19:00 +8°C° 1 mm 2 mps 737 mmHg 88%
    20:00 +8°C° 1 mm 2 mps 737 mmHg 89%
    21:00 +7°C° 1 mm 2 mps 737 mmHg 90%
    22:00 +7°C° 2.1 mm 2 mps 737 mmHg 91%
    23:00 +6°C° 2.1 mm 2 mps 738 mmHg 92%
    Show more